Погода в Дендермонде

Бельгия     51°01′43″N   4°05′55″E
темп.,
°C
ветер,
м/с
пор.,
м/с
влажн.,
%
обл.,
%
осадки,
мм/ч
давл.,
гПа
погр.,
м
9 мая, вс
вс923:00+12ю51390100 0.0 1007232
02:00+12ю51392100 0.0 1006228
05:00+11ю41293100 0.0 1004199
08:00+14ююв51488100 0.3 1002362
11:00+19ю81276100 2.4 1002727
14:00+23ююз9125924 2.5 10011392
17:00+24ююз8115987 0.0 9991579
20:00+20ю61174100 0.6 999416
10 мая, пн
пн1023:00+15ююв4995100 2.8 1001400
02:00+15ю61294100 3.1 1000571
05:00+14ю41194100 0.2 999425
08:00+13юз61291100 7.8 1002786
11:00+15юз81171100 0.4 10051362
14:00+17юз8116188 0.6 10061719
17:00+17юз7957100 0.2 10071661
20:00+15ююз5968100 0.3 1008522
11 мая, вт
вт1123:00+12ююз3678100 0.0 1009140
02:00+11ю3580100 0.0 1009108
05:00+10ю3590100 0.0 1009101
08:00+12ю2484100 0.0 1009150
11:00+15ю3370100 0.5 1009644
14:00+17юв2260100 2.4 10081185
17:00+17юв346489 2.1 10081112
20:00+13юз5789100 5.3 1008224
12 мая, ср
ср1223:00+10зсз4797100 1.3 1010298
02:00+10з2795100 2.3 1010318
05:00+9зюз3893100 0.0 1011293
08:00+10зюз3788100 0.0 1011374
11:00+13з456570 0.0 10111120
14:00+16з454936 0.2 10111951
17:00+16зсз4549100 0.0 10101928
20:00+14ссз237016 0.1 1011124
13 мая, чт
чт1323:00+9ссв228740 0.0 101211
02:00+8юв118744 0.0 101210
05:00+7юв118911 0.0 101110
08:00+10в11835 0.0 1011119
11:00+15юв22655 0.1 1011833
14:00+17ю225661 1.7 10101402
17:00+17с116010 2.4 10091074
20:00+14ссв368088 5.3 1010170